Madison, SD

5:46 PM CDT on June 27, 2017 (GMT -0500)
Madison Municipal

Weather History for KMDS - October, 2013

Change the Weather History Date:

Friday, October 4, 2013

  Actual Average Record
Temperature  
Mean Temperature 52 °F -  
Max Temperature 57 °F 65 °F 84 °F (2011)
Min Temperature 48 °F 40 °F 26 °F (2014)
Degree Days  
Heating Degree Days 12    
Growing Degree Days 2 (Base 50)    
Moisture  
Dew Point 52 °F    
Average Humidity 100    
Maximum Humidity 100    
Minimum Humidity 100    
Precipitation  
Precipitation 0.41 in - - ()
Sea Level Pressure  
Sea Level Pressure 29.82 in    
Wind  
Wind Speed 19 mph (ENE)    
Max Wind Speed 26 mph    
Max Gust Speed 34 mph    
Visibility 8 miles    
Events Rain , Thunderstorm    
Averages and records for this station are not official NWS values.
T = Trace of Precipitation, MM = Missing Value Source: NWS Daily Summary

Daily Weather History Graph

Daily Weather History Graph

Search for Another Location

Airport or City:

Trip Planner

Search our weather history database for the weather conditions in past years. The results will help you decide how hot, cold, wet, or windy it might be!

Date:

Astronomy

Oct. 04, 2013 Rise Set
Actual Time 7:29 AM CDT 7:03 PM CDT
Civil Twilight 7:01 AM CDT 7:32 PM CDT
Nautical Twilight 6:27 AM CDT 8:05 PM CDT
Astronomical Twilight 5:53 AM CDT 8:39 PM CDT
Moon 7:07 AM CDT (10/4) 6:45 PM CDT (10/4)
Length of Visible Light 12h 30m
Length of Day
11h 33m
Waning Crescent, 0% of the Moon is Illuminated
Oct 4
Waning Crescent
Oct 4
New
Oct 11
First Quarter
Oct 18
Full
Oct 26
Last Quarter

Hourly Weather History & Observations

Time (CDT) Temp. Dew Point Humidity Pressure Visibility Wind Dir Wind Speed Gust Speed Precip Events Conditions
12:10 AM 51.8 °F 51.8 °F 100% 29.90 in 10.0 mi NE 16.1 mph 21.9 mph N/A   Overcast
12:30 AM 51.8 °F 51.8 °F 100% 29.91 in 10.0 mi NE 15.0 mph 21.9 mph N/A   Overcast
12:50 AM 50.0 °F 50.0 °F 100% 29.90 in 10.0 mi ENE 21.9 mph 28.8 mph N/A   Overcast
1:10 AM 50.0 °F 50.0 °F 100% 29.89 in 10.0 mi ENE 20.7 mph 25.3 mph N/A   Overcast
1:30 AM 50.0 °F 50.0 °F 100% 29.90 in 10.0 mi ENE 19.6 mph 31.1 mph N/A   Overcast
1:50 AM 50.0 °F 50.0 °F 100% 29.90 in 10.0 mi ENE 19.6 mph 27.6 mph N/A   Overcast
2:10 AM 50.0 °F 50.0 °F 100% 29.90 in 10.0 mi ENE 20.7 mph 26.5 mph N/A   Overcast
2:30 AM 50.0 °F 50.0 °F 100% 29.91 in 10.0 mi East 18.4 mph 24.2 mph N/A   Overcast
2:50 AM 50.0 °F 50.0 °F 100% 29.90 in 10.0 mi ENE 16.1 mph 24.2 mph N/A   Overcast
3:10 AM 50.0 °F 50.0 °F 100% 29.90 in 10.0 mi ENE 15.0 mph 24.2 mph N/A   Overcast
3:30 AM 50.0 °F 50.0 °F 100% 29.89 in 10.0 mi ENE 15.0 mph 24.2 mph N/A   Overcast
3:50 AM 50.0 °F 50.0 °F 100% 29.90 in 10.0 mi ENE 16.1 mph 24.2 mph N/A   Overcast
4:10 AM 50.0 °F 50.0 °F 100% 29.89 in 10.0 mi ENE 17.3 mph 24.2 mph N/A   Overcast
4:30 AM 50.0 °F 50.0 °F 100% 29.89 in 10.0 mi ENE 17.3 mph 23.0 mph N/A   Overcast
4:50 AM 50.0 °F 50.0 °F 100% 29.88 in 10.0 mi ENE 19.6 mph 27.6 mph N/A   Overcast
5:10 AM 50.0 °F 50.0 °F 100% 29.88 in 10.0 mi ENE 21.9 mph 28.8 mph N/A   Overcast
5:30 AM 50.0 °F 50.0 °F 100% 29.89 in 10.0 mi East 24.2 mph - N/A   Overcast
5:50 AM 50.0 °F 50.0 °F 100% 29.89 in 10.0 mi ENE 23.0 mph 27.6 mph N/A   Overcast
6:10 AM 50.0 °F 50.0 °F 100% 29.90 in 2.5 mi ENE 16.1 mph 21.9 mph N/A   Overcast
6:30 AM 50.0 °F 50.0 °F 100% 29.90 in 5.0 mi East 15.0 mph 23.0 mph N/A   Overcast
6:50 AM 50.0 °F 50.0 °F 100% 29.89 in 3.0 mi ENE 16.1 mph 21.9 mph N/A   Overcast
7:10 AM 50.0 °F 50.0 °F 100% 29.89 in 1.8 mi ENE 15.0 mph 21.9 mph N/A   Overcast
7:30 AM 50.0 °F 50.0 °F 100% 29.89 in 5.0 mi NE 11.5 mph 19.6 mph N/A   Overcast
7:50 AM 50.0 °F 50.0 °F 100% 29.88 in 4.0 mi NE 19.6 mph 24.2 mph N/A   Overcast
8:10 AM 50.0 °F 50.0 °F 100% 29.87 in 1.8 mi NE 17.3 mph 25.3 mph N/A   Overcast
8:30 AM 50.0 °F 50.0 °F 100% 29.88 in 2.5 mi ENE 19.6 mph 25.3 mph N/A   Overcast
8:50 AM 50.0 °F 50.0 °F 100% 29.88 in 7.0 mi ENE 20.7 mph 28.8 mph N/A   Overcast
9:10 AM 50.0 °F 50.0 °F 100% 29.88 in 10.0 mi ENE 17.3 mph 26.5 mph N/A   Overcast
9:30 AM 50.0 °F 50.0 °F 100% 29.89 in 10.0 mi East 19.6 mph 25.3 mph N/A   Overcast
9:50 AM 50.0 °F 50.0 °F 100% 29.89 in 5.0 mi ENE 20.7 mph 26.5 mph N/A   Overcast
10:10 AM 50.0 °F 50.0 °F 100% 29.88 in 0.8 mi ENE 18.4 mph 27.6 mph N/A   Overcast
10:30 AM 51.8 °F 51.8 °F 100% 29.89 in 1.8 mi ENE 20.7 mph 27.6 mph N/A   Overcast
10:50 AM 51.8 °F 51.8 °F 100% 29.88 in 2.0 mi ENE 19.6 mph 27.6 mph N/A   Overcast
11:10 AM 51.8 °F 51.8 °F 100% 29.87 in 4.0 mi ENE 20.7 mph 26.5 mph N/A   Overcast
11:30 AM 51.8 °F 51.8 °F 100% 29.88 in 7.0 mi ENE 21.9 mph 31.1 mph N/A   Overcast
11:50 AM 51.8 °F 51.8 °F 100% 29.89 in 1.2 mi East 21.9 mph 29.9 mph N/A   Overcast
12:10 PM 53.6 °F 53.6 °F 100% 29.87 in 8.0 mi East 20.7 mph 27.6 mph N/A   Overcast
12:30 PM 53.6 °F 53.6 °F 100% 29.84 in 2.0 mi ENE 20.7 mph 29.9 mph N/A   Overcast
12:50 PM 53.6 °F 53.6 °F 100% 29.83 in 8.0 mi East 21.9 mph 31.1 mph N/A   Overcast
1:10 PM 53.6 °F 53.6 °F 100% 29.84 in 10.0 mi East 21.9 mph 27.6 mph N/A   Overcast
1:30 PM 53.6 °F 53.6 °F 100% 29.82 in 10.0 mi ENE 24.2 mph 34.5 mph N/A   Overcast
1:50 PM 55.4 °F 55.4 °F 100% 29.83 in 10.0 mi East 18.4 mph 31.1 mph N/A   Overcast
2:10 PM 55.4 °F 55.4 °F 100% 29.82 in 10.0 mi East 19.6 mph 26.5 mph N/A   Overcast
2:30 PM 55.4 °F 55.4 °F 100% 29.81 in 10.0 mi East 18.4 mph 29.9 mph N/A   Overcast
2:50 PM 55.4 °F 55.4 °F 100% 29.80 in 10.0 mi East 21.9 mph 27.6 mph N/A   Overcast
3:10 PM 55.4 °F 55.4 °F 100% 29.78 in 10.0 mi East 26.5 mph 31.1 mph N/A   Overcast
3:30 PM 53.6 °F 53.6 °F 100% 29.77 in 10.0 mi East 24.2 mph 34.5 mph N/A   Overcast
3:50 PM 53.6 °F 53.6 °F 100% 29.78 in 10.0 mi East 21.9 mph 33.4 mph N/A   Overcast
4:10 PM 53.6 °F 53.6 °F 100% 29.79 in 10.0 mi East 21.9 mph 27.6 mph N/A   Overcast
4:30 PM 53.6 °F 53.6 °F 100% 29.78 in 10.0 mi East 21.9 mph 28.8 mph N/A   Overcast
4:50 PM 53.6 °F 53.6 °F 100% 29.76 in 9.0 mi East 20.7 mph 29.9 mph N/A Rain Light Rain
5:10 PM 53.6 °F 53.6 °F 100% 29.75 in 7.0 mi East 25.3 mph 31.1 mph N/A   Overcast
5:30 PM 53.6 °F 53.6 °F 100% 29.74 in 3.0 mi ENE 17.3 mph 29.9 mph N/A   Overcast
5:50 PM 53.6 °F 53.6 °F 100% 29.73 in 8.0 mi East 21.9 mph 29.9 mph N/A   Overcast
6:10 PM 53.6 °F 53.6 °F 100% 29.72 in 10.0 mi East 19.6 mph 27.6 mph N/A   Overcast
6:30 PM 53.6 °F 53.6 °F 100% 29.71 in 10.0 mi East 20.7 mph 32.2 mph N/A   Overcast
6:50 PM 53.6 °F 53.6 °F 100% 29.69 in 10.0 mi ENE 21.9 mph 28.8 mph N/A   Overcast
7:10 PM 55.4 °F 55.4 °F 100% 29.68 in 10.0 mi East 24.2 mph 31.1 mph N/A   Overcast
7:30 PM 55.4 °F 55.4 °F 100% 29.69 in 10.0 mi East 21.9 mph 28.8 mph N/A Rain Light Rain
7:50 PM 55.4 °F 55.4 °F 100% 29.70 in 5.0 mi East 23.0 mph 33.4 mph N/A Rain , Thunderstorm Light Rain
8:10 PM 55.4 °F 55.4 °F 100% 29.71 in 1.2 mi ENE 18.4 mph 26.5 mph 0.25 in Rain , Thunderstorm Heavy Thunderstorms and Rain
8:30 PM 55.4 °F 55.4 °F 100% 29.71 in 5.0 mi ENE 18.4 mph 26.5 mph 0.41 in Rain Light Rain
8:50 PM 55.4 °F 55.4 °F 100% 29.71 in 3.0 mi East 18.4 mph 25.3 mph 0.41 in Rain , Thunderstorm Light Rain
9:10 PM 55.4 °F 55.4 °F 100% 29.70 in 10.0 mi East 9.2 mph - N/A   Overcast
9:30 PM 55.4 °F 55.4 °F 100% 29.70 in 10.0 mi East 15.0 mph 25.3 mph N/A   Overcast
9:50 PM 55.4 °F 55.4 °F 100% 29.71 in 10.0 mi East 9.2 mph - N/A   Overcast
10:10 PM 57.2 °F 57.2 °F 100% 29.71 in 10.0 mi ESE 10.4 mph 17.3 mph N/A   Overcast
10:30 PM 57.2 °F 57.2 °F 100% 29.70 in 10.0 mi East 12.7 mph 17.3 mph N/A   Overcast
10:50 PM 57.2 °F 57.2 °F 100% 29.72 in 10.0 mi SSW 15.0 mph 20.7 mph N/A   Overcast
11:10 PM 53.6 °F 53.6 °F 100% 29.72 in 10.0 mi SSW 17.3 mph - N/A   Overcast
11:30 PM 48.2 °F 48.2 °F 100% 29.72 in 10.0 mi SSW 18.4 mph 25.3 mph N/A   Overcast
11:50 PM 48.2 °F 48.2 °F 100% 29.73 in 10.0 mi SSW 16.1 mph 19.6 mph N/A   Overcast